STARLINK-2682

operational
NORAD ID: 48440 Int'l Des: 2021-040 Owner: SPXS Country: US Constellation: starlink
LEOCIRCULARSTARLINK_TYPE

About STARLINK-2682

Description loading...

Live Position

Loading 3D Globe...

Upcoming Passes

Altitude History

Altitude vs Time

uPlot chart will show altitude changes over time

Two-Line Element Set

1 48440U 21040N 25251.36015846 .00005232 00000-0 36993-3 0 9990
2 48440 53.0526 280.1326 0001472 80.4107 279.7048 15.06396136239145
Epoch: Sep 8, 2025 • Age: 19 hours

Current Status

Altitude 550.7 km
Velocity 7.59 km/s
Sub-Earth Point 44.07°N, 85.83°W
Launch Date May 9, 2021
Age 4.3 years
Type internet

Technical Details

Classification Payload
Mass 260.00 kg
Dry Mass 248.00 kg
Total Mass 260.00 kg
Length 0.20 m
Diameter 2.80 m
Span 9.00 m
Shape Box + pan
Manufacturer SPXS
Bus Type Starlink
Phase Status In Orbit
Owner/State SPXS/US

Large Constellations

Loading constellations...